Location: Potawatomi Wildlife Park
(41.2308°N, 86.1050°W)
Time: 10:17:02
(UTC-05:00)

Daily predictions for brighter satellites

Satellite Brightness Start Highest point End
(mag) Time Altitude Azimuth Time Altitude Azimuth Time Altitude Azimuth
Cosmos 2278 Rocket 2.6 18:13:00 10° NNW 18:18:41 74° WSW 18:24:19 10° SSE
CZ-4 R/B 4.5 18:15:35 10° SSE 18:19:40 63° ENE 18:23:46 10° N
Cosmos 1455 3.5 18:17:55 10° NNE 18:20:44 19° ENE 18:23:33 10° ESE
Cosmos 1805 Rocket 4.2 18:17:55 10° SSE 18:21:59 37° E 18:26:06 10° NNE
Cosmos 1356 Rocket 4.3 18:20:35 10° SSE 18:23:57 27° E 18:27:21 10° NNE
Cosmos 1328 4.4 18:21:15 10° SSW 18:25:09 62° W 18:29:04 10° N
SKYMED 2 4.1 18:21:53 10° NNE 18:25:59 39° E 18:30:03 10° SSE
Thor Agena Rocket 3.6 18:25:06 10° NNE 18:30:21 89° ESE 18:35:30 10° SSW
Cosmos 1538 Rocket 4.4 18:25:27 10° S 18:30:29 47° ESE 18:35:36 10° NNE
Sich 1 3.8 18:28:56 10° SSE 18:32:50 31° E 18:36:44 10° NNE
SPOT 3 Rocket 3.9 18:29:50 10° S 18:34:57 71° WSW 18:40:09 10° NNW
MSX 4.0 18:29:51 10° SSE 18:35:34 82° WSW 18:41:21 10° NNW
Cosmos 1703 3.4 18:32:19 10° S 18:36:05 50° E 18:39:52 10° NNE
Coronas F rocket 2.8 18:36:13 10° SE 18:37:38 14° E 18:37:55 14° E
Cosmos 2180 Rocket 4.5 18:33:02 10° N 18:39:12 67° E 18:45:23 10° SSE
Meteor 2-10 4.1 18:35:42 10° N 18:40:52 86° W 18:46:11 10° S
Cosmos 1300 3.9 18:37:22 10° NNW 18:41:03 46° W 18:44:44 10° SSW
Cosmos 2237 Rocket 3.2 18:36:35 10° SW 18:42:00 47° WNW 18:47:27 10° NNE
Timation 1 Rocket 4.4 18:37:15 10° NNW 18:43:18 87° WSW 18:49:19 10° SSE
SJ-6B 3.9 18:41:10 10° SE 18:44:34 26° ENE 18:48:01 10° NNE
Cosmos 1633 Rocket 3.6 18:40:36 10° SSE 18:44:37 36° E 18:48:40 10° NNE
Cosmos 2369 Rocket 3.7 18:41:34 10° N 18:45:02 16° NE 18:47:04 14° ENE
CZ-4 R/B 3.6 18:45:12 10° SSW 18:48:35 28° W 18:52:02 10° NW
SL-16 R/B 2.2 18:45:26 10° SSW 18:51:06 90° ESE 18:56:48 10° NNE
Lacrosse 5 3.9 18:51:15 10° NNW 18:53:46 14° N 18:56:17 10° NE
Aureole 2 Rocket 4.5 18:52:47 10° SW 18:56:17 33° WNW 19:00:03 10° N
Cosmos 773 Rocket 4.0 18:56:44 10° S 19:01:47 59° ESE 19:06:56 10° NNE
USA 215 3.7 18:56:43 13° E 19:02:09 44° NNE 19:08:18 10° NW
ALOS 3.2 18:58:33 10° ESE 19:02:23 26° ENE 19:06:14 10° NNE
Cosmos 1484 Rocket 3.7 19:00:02 10° S 19:03:54 54° W 19:07:51 10° NNW
Cosmos 2297 4.2 18:59:19 10° NNW 19:04:58 66° WSW 19:10:38 10° S
Abrixas 4.2 19:02:55 10° WNW 19:05:20 23° N 19:06:25 18° NNE
Meteor 1-28 Rocket 3.0 19:01:46 10° NNE 19:05:29 79° ESE 19:09:12 10° S
Cosmos 1862 Rocket 4.4 19:04:49 10° NNE 19:08:34 27° ENE 19:12:17 10° SE
Cosmos 1340 Rocket 4.2 19:06:09 10° SSW 19:09:50 39° WNW 19:13:32 10° N
METEOR-M 4.1 19:04:37 10° SSE 19:09:53 62° ENE 19:15:11 10° N
Cosmos 1707 Rocket 3.7 19:06:49 10° N 19:11:10 77° W 19:15:30 10° S
Cosmos 292 Rocket 4.1 19:07:07 10° S 19:11:33 41° ESE 19:14:25 20° NE
FENGYUN 3A 4.2 19:07:19 10° SE 19:12:07 35° ENE 19:16:57 10° N
COSMO-SKYMED 1 3.1 19:09:47 10° N 19:14:04 59° WNW 19:18:19 10° SSW
NOAA 12 4.0 19:09:32 10° SSE 19:14:45 74° ENE 19:20:01 10° N
Cosmos 2112 Rocket 4.4 19:16:25 10° SSE 19:21:11 38° ESE 19:23:17 27° NE
Cosmos 1666 Rocket 3.8 19:17:18 10° SSW 19:21:37 69° W 19:26:01 10° N
Cosmos 1869 3.2 19:20:07 10° N 19:24:10 70° E 19:28:11 10° SSE
Cosmos 1943 3.9 19:23:24 10° SSE 19:28:15 30° ESE 19:28:36 30° E
Lacrosse 4 Rocket 1.2 19:24:40 10° NNW 19:28:44 88° WSW 19:32:48 10° SSE
Cosmos 1626 3.4 19:25:41 10° SSW 19:29:14 41° WNW 19:32:49 10° N
ATLAS 5 CENTAUR R/B 3.7 19:25:07 10° N 19:29:23 20° NE 19:29:30 20° NE
Cosmos 1933 Rocket 3.6 19:28:48 10° S 19:33:08 57° E 19:35:24 27° NNE
Blok-2BL 3.9 19:32:44 10° NNW 19:35:09 42° N 19:35:09 42° N
Resurs 01 Rocket 1.7 19:34:52 20° SE 19:37:46 52° ENE 19:42:06 10° N
Cosmos 1184 Rocket 4.4 19:36:44 10° SW 19:39:50 36° WNW 19:42:57 10° N
H-2A ROCKET BODY 4.0 19:18:14 10° WSW 19:41:09 39° SSW 19:45:25 19° SE
SL-19 R/B 4.2 19:35:47 10° SSE 19:41:35 74° ENE 19:47:10 10° NNW
Cosmos 1943 Rocket 3.8 19:42:21 10° N 19:44:33 18° NNE 19:44:33 18° NNE
USA 229 DEB 3.8 19:40:10 10° SW 19:47:01 74° NW 19:51:58 21° NNE
USA 229 3.8 19:40:15 10° SW 19:47:07 75° NW 19:52:02 21° NNE
FREGAT/IRIS 3.7 19:45:05 10° S 19:48:01 46° W 19:51:00 10° NNW
Iridium 4 Rocket 3.2 19:45:43 10° S 19:50:08 70° W 19:54:20 10° N
Cosmos 1627 Rocket 4.3 19:44:30 10° S 19:50:38 71° E 19:56:45 10° NNE
Cosmos 1655 Rocket 4.0 19:45:21 10° SSE 19:51:32 55° E 19:57:42 10° NNE
Spot 2 Rocket 3.3 19:47:01 10° SSE 19:52:02 73° ENE 19:57:05 10° N
Cosmos 1242 Rocket 3.0 19:50:51 10° NNW 19:54:17 56° W 19:57:43 10° S
Cosmos 1470 Rocket 3.6 19:50:26 10° SSW 19:54:46 74° W 19:57:06 27° N
Tiangong 1 3.0 19:52:46 10° WSW 19:54:18 26° SW 19:54:18 26° SW
Cosmos 1603 3.8 19:50:29 10° SSW 19:56:04 74° WNW 19:59:29 25° NNE
Cosmos 1455 4.5 19:53:13 10° NNW 19:56:25 26° W 19:59:36 10° SSW
CZ-4C R/B 3.9 19:51:18 10° NNW 19:56:24 24° NNE 19:56:24 24° NNE
BREEZE-M DEB (TANK) 4.4 19:59:03 10° NW 19:59:20 12° NW 19:59:20 12° NW
NOSS 3-1 (A) 3.8 19:55:27 10° S 20:00:05 41° SE 20:00:05 41° SE
FengYun 1-2 T 4.2 19:58:14 10° S 20:03:46 80° WSW 20:09:19 10° NNW
S3M 4.4 20:07:24 10° N 20:12:05 46° NNE 20:12:05 46° NNE
Cosmos 2026 Rocket 3.9 20:09:28 10° S 20:15:41 83° W 20:21:50 10° N
BREEZE-M DEB (TANK) 4.5 20:07:25 10° WNW 20:20:35 45° N 20:21:03 44° NNE
Meteor 2-20 4.5 20:18:54 10° SSW 20:25:00 77° W 20:31:11 10° N
Cosmos 1680 Rocket 4.4 20:21:16 10° SW 20:26:17 46° WNW 20:28:11 33° NNW
Cosmos 2369 Rocket 2.4 20:24:09 10° NNW 20:28:57 65° NNW 20:28:57 65° NNW
Cosmos 972 Rocket 4.4 20:25:04 10° NNW 20:30:24 69° WSW 20:31:23 57° SSW
NOSS 3-1 (C) 3.4 20:32:07 10° SW 20:37:29 74° W 20:37:29 74° W
Lacrosse 5 4.0 20:34:03 10° NNW 20:35:34 17° NNW 20:35:34 17° NNW
ALOS 3.9 20:35:32 10° SSW 20:39:41 32° W 20:43:53 10° NNW
Cosmos 1553 Rocket 4.4 20:34:43 10° N 20:39:22 53° NNW 20:39:22 53° NNW
USA 215 3.5 20:44:05 57° S 20:44:59 63° SW 20:51:29 10° NW
ATLAS 3B R/B 4.4 20:44:47 10° NNW 20:47:34 20° N 20:47:34 20° N
CZ-3A R/B 4.4 20:51:41 10° WNW 20:55:57 34° SW 21:04:02 10° SSE
Resurs 01 Rocket 4.5 21:12:22 11° WSW 21:14:32 14° W 21:17:00 10° WNW
ATLAS 5 CENTAUR R/B 4.1 21:08:53 10° NNW 21:11:05 24° NNW 21:11:05 24° NNW
CZ-4C R/B 4.5 21:39:08 10° NNW 21:41:36 24° NNW 21:41:36 24° NNW
